Location: Saluda
(35.2377°N, 82.3468°W)
Time: 15:40:33
(UTC+00:00)

Explorer 11/Cluster Stage 4 - Pass Details

Date: 08 October 2022
Orbit: 466 x 1247 km, 28.8° (Epoch: 08 December)

Event Time Altitude Azimuth Distance (km) Brightness Sun altitude
Rises 12:33:29 0° 207° (SSW) 3,757 10.0 11.9°
Reaches altitude 10° 12:37:01 10° 189° (S) 2,938 9.7 12.6°
Maximum altitude 12:41:47 18° 149° (SSE) 2,502 10.1 13.5°
Drops below altitude 10° 12:46:53 10° 109° (ESE) 3,178 12.9 14.5°
Sets 12:50:53 0° 93° (E) 4,180 11.8 15.3°
